"Pseudo-MPEC" for S509594

Created 2016 Jun 20 2:49:57 UT using Find_Orb

Astrometry:
     S509594 tC2016 06 12.99285 14 00 13.95 +32 45 31.6          14.9 R      Y00
     S509594 tC2016 06 12.99448 14 01 13.90 +32 45 59.5          14.9 R      Y00
     S509594 tC2016 06 12.99592 14 02 06.75 +32 46 23.1          15.0 R      Y00
     S509594 tC2016 06 13.04334 14 31 16.51 +32 49 15.4          13.9 R      Y00
     S509594 tC2016 06 13.04362 14 31 26.90 +32 49 13.4          14.7 R      Y00
     S509594 tC2016 06 13.04438 14 31 56.28 +32 49 06.5          14.0 R      Y00
     S509594 tC2016 06 13.04523 14 32 28.96 +32 48 58.8          14.9 R      Y00
     S509594 tC2016 06 13.04620 14 33 06.37 +32 48 49.2          14.0 R      Y00
     S509594 tC2016 06 13.04674 14 33 26.59 +32 48 43.9          14.9 R      Y00
     S509594 tC2016 06 13.04705 14 33 39.13 +32 48 40.2          14.8 R      Y00
     S509594 tC2016 06 13.04809 14 34 19.51 +32 48 29.1          14.8 R      Y00
     S509594 tC2016 06 13.04837 14 34 30.49 +32 48 25.8          14.2 R      Y00
     S509594 tC2016 06 13.04868 14 34 42.17 +32 48 22.1          14.1 R      Y00
     S509594 tC2016 06 13.04893 14 34 52.02 +32 48 19.8          14.1 R      Y00
     S509594 tC2016 06 13.04957 14 35 17.29 +32 48 12.2          14.8 R      Y00

Station data:
(Y00) SONEAR Observatory, Oliveira (S20.71513 W44.78496)  Brazil.   Observers
    C. Jacques, E. Pimentel, J. Barros.  Measurer C. Jacques.  0.28-m f/2.2
    astrograph + CCD.

Orbital elements:  S509594
   Perigee 2016 Jun 13.243749 +/- 0.00108 TT =  5:50:59 (JD 2457552.743749)
Epoch 2016 Jun 13.0 TT = JDT 2457552.5                        Find_Orb
M 182.277988 +/- 0.9                (J2000 equatorial)
n 729.119505634 +/- 1.86            Peri.  266.464074 +/- 0.15
a 26387.87156 +/- 45                Node   125.192358 +/- 0.08
e   0.73878836 +/- 0.000699         Incl.   26.445125 +/- 0.030
P 710.98m/0.494d           H 30.3   G  0.15   U 13.2  
q 6892.819074 +/- 29.3    Q 45882.92406 +/- 62.7
From 15 observations 2016 June 12-13 (81.7 min); mean residual 3".280
Residuals in arcseconds: 
160612 Y00 10.2- .531-    160613 Y00 .537- .016-    160613 Y00 1.51+ .018-    
160612 Y00 1.30+ 3.6m+    160613 Y00 .325- .200+    160613 Y00 3.12+ .194-    
160612 Y00 10.1+ .551+    160613 Y00 .345+ .106+    160613 Y00 1.21- .386-    
160613 Y00 .781+ .276-    160613 Y00 7.41- .317+    160613 Y00 .635+ .181+    
160613 Y00 3.45- .133+    160613 Y00 .274- .149-    160613 Y00 5.68+ .075+    

Ephemerides (geocentric):
Date (UTC) HH   RA              Dec         delta   r     elong  mag " sig PA
---- -- -- --  ------------   ------------  ------ ------ -----  --- ---- ---
2016 06 13 00  14 07 48.013   +26 24 25.17   45878 1.0157 111.0 15.2   18 163
2016 06 13 01  14 38 34.558   +26 22 28.30   44794 1.0157 116.0 15.0   10   3
2016 06 13 02  15 12 09.783   +25 52 06.11   41811 1.0158 121.1 14.7   86 124
2016 06 13 03  15 52 28.647   +24 36 35.20   36700 1.0158 127.0 14.3  288 116
2016 06 13 04  16 48 32.091   +21 40 33.69   28962 1.0158 134.2 13.5  840 114
2016 06 13 05  18 35 42.878   +12 24 19.61   17519 1.0157 140.6 12.3 3410 117
2016 06 13 06  05 23 58.205   -19 05 00.40    7922 1.0156  42.3 15?? 289'  71
2016 06 13 07  10 26 42.329   +14 37 05.14   21909 1.0156  70.6 15.3 1501  60
2016 06 13 08  11 45 41.164   +21 14 04.94   31923 1.0156  85.7 15.4  268  42
2016 06 13 09  12 33 38.493   +23 58 09.80   38691 1.0157  94.5 15.4  171 115
2016 06 13 10  13 10 28.781   +25 23 10.47   43044 1.0157 101.0 15.4  303  96
2016 06 13 11  13 42 30.408   +26 08 06.28   45367 1.0157 106.5 15.3  377  92
2016 06 13 12  14 12 52.144   +26 25 54.44   45833 1.0158 111.5 15.2  415  91
2016 06 13 13  14 43 53.250   +26 19 13.90   44472 1.0158 116.5 15.0  427  91
2016 06 13 14  15 18 09.546   +25 42 36.49   41189 1.0158 121.8 14.7  413  90
2016 06 13 15  16 00 00.488   +24 16 05.11   35725 1.0158 127.9 14.2  357  87
2016 06 13 16  17 00 01.626   +20 51 41.72   27520 1.0158 135.3 13.4  205  65
2016 06 13 17  19 05 27.735   +09 02 16.74   15379 1.0157 140.0 12.0  918 129
2016 06 13 18  07 09 26.442   -08 31 32.31    9914 1.0156  40.1 16?? 2362  59
2016 06 13 19  10 42 58.429   +16 14 29.77   23674 1.0156  73.3 15.3  405  96
2016 06 13 20  11 54 30.603   +21 51 10.52   33118 1.0157  86.9 15.4  642  87
2016 06 13 21  12 40 09.005   +24 17 24.78   39486 1.0157  95.2 15.4  722  87
2016 06 13 22  13 16 00.497   +25 33 52.99   43516 1.0157 101.5 15.4  765  88
2016 06 13 23  13 47 37.879   +26 13 18.18   45554 1.0158 106.9 15.3  796  89
2016 06 14 00  14 17 57.070   +26 26 31.98   45747 1.0158 112.0 15.2  828  90
2016 06 14 01  14 49 15.948   +26 14 59.69   44107 1.0158 117.0 14.9  867  92
2016 06 14 02  15 24 18.562   +25 31 40.21   40518 1.0158 122.4 14.6  928  94
2016 06 14 03  16 07 53.794   +23 52 46.42   34689 1.0159 128.7 14.1 1045  97
2016 06 14 04  17 12 37.406   +19 54 01.40   25991 1.0158 136.6 13.2 1367 102
2016 06 14 05  19 44 10.940   +04 21 20.29   13134 1.0158 137.4 11.7 3506 112